Location: Libas
(9.8833°N, 125.9833°E)
Time: 21:31:48
(UTC+00:00)

SL-19 R/B - Pass Details

Date: 27 October 2020
Orbit: 358 x 808 km, 99.4° (Epoch: 26 November)

Event Time Altitude Azimuth Distance (km) Brightness Sun altitude
Rises 19:55:18 0° 21° (NNE) 2,248 7.6 -22.7°
Reaches altitude 10° 19:57:11 10° 27° (NNE) 1,435 6.6 -22.2°
Maximum altitude 20:00:08 50° 103° (ESE) 548 4.6 -21.5°
Drops below altitude 10° 20:03:26 10° 180° (S) 1,611 6.8 -20.7°
Sets 20:05:40 0° 185° (S) 2,566 7.8 -20.1°
